Volver al catálogo

SPACEMOBILE-SSR04 DEB

ActivoVLEO
NORAD 62372·DEBRIS·🇺🇸 United States

Lanzado Sep 12, 2024 desde Cape Canaveral Space Force Station

Loading…

Próximos Pases (próximas 24 horas)

TLE

ActualizadoSource: Space-Track

Época: Sep 14, 2026, 06:47 UTC

1 62372U 24163J   26257.28293017  .00012261  00000-0  29010-3 0  9997
2 62372  52.9839 208.3645 0006666  93.9568 266.2198 15.42213038108697

Sigue SPACEMOBILE-SSR04 DEB en tiempo real con AllMySat

Download on the App Store